Voltar ao catálogo

ARIANE 2 DEB

AtivoGTO
NORAD 27594·DEBRIS·🇫🇷 France

Lançado May 17, 1988 de Guiana Space Centre

Loading…

TLE

ObsoletoSource: Space-Track

Época: Sep 13, 2026, 14:08 UTC

1 27594U 88040D   26256.58890821  .00001299  00000-0  58905-2 0  9999
2 27594   7.5785 253.9718 7125269 282.9383  11.8783  2.37078720203754

Acompanhe ARIANE 2 DEB em tempo real com AllMySat

Download on the App Store